ES0THZ-9 Weather Reports


time (UTC)temp
C
wind
direction
speed
KPH
gust
KPH
rain 1hr
cm
rain 24hr
cm
rain mn
cm
humidity
%
barometer
mb
20260507093353 13 61 4.8 11.3 0.00 0.00 0.00 44 1013.7
20260507092352 13 52 9.7 17.7 0.00 0.00 0.00 44 1013.6
20260507091409 13 2 6.4 19.3 0.00 0.00 0.00 45 1013.6
20260507090347 13 65 6.4 14.5 0.00 0.00 0.00 49 1013.6
20260507085345 13 58 6.4 12.9 0.00 0.00 0.00 48 1013.6
20260507084342 13 38 6.4 12.9 0.00 0.00 0.00 49 1013.5
20260507083340 14 74 6.4 14.5 0.00 0.00 0.00 50 1013.5
20260507082340 14 71 6.4 12.9 0.00 0.00 0.00 53 1013.5
20260507081338 13 81 6.4 14.5 0.00 0.00 0.00 54 1013.5
20260507080355 13 90 6.4 14.5 0.00 0.00 0.00 55 1013.5
20260507075333 12 56 6.4 16.1 0.00 0.00 0.00 58 1013.5
20260507074330 12 80 6.4 14.5 0.00 0.00 0.00 60 1013.6
20260507073329 11 49 3.2 11.3 0.00 0.00 0.00 62 1013.6
20260507072327 11 49 3.2 11.3 0.00 0.00 0.00 62 1013.6
20260507071405 10 72 6.4 11.3 0.00 0.00 0.00 65 1013.6
20260507070323 10 70 6.4 11.3 0.00 0.00 0.00 66 1013.6
20260507065340 9 64 6.4 9.7 0.00 0.00 0.00 68 1013.7
20260507064318 9 60 4.8 9.7 0.00 0.00 0.00 67 1013.7
20260507063317 9 65 3.2 8.0 0.00 0.00 0.00 68 1013.8
20260507062317 8 74 4.8 9.7 0.00 0.00 0.00 67 1013.7
20260507061313 8 62 6.4 12.9 0.00 0.00 0.00 67 1013.6
20260507060312 8 65 6.4 9.7 0.00 0.00 0.00 68 1013.5
20260507055310 8 64 6.4 9.7 0.00 0.00 0.00 68 1013.4
20260507054307 8 66 4.8 8.0 0.00 0.00 0.00 67 1013.5
20260507053306 8 70 6.4 9.7 0.00 0.00 0.00 67 1013.4
20260507052306 8 66 6.4 11.3 0.00 0.00 0.00 69 1013.3
20260507051301 7 62 6.4 11.3 0.00 0.00 0.00 70 1013.3
20260507050319 7 63 6.4 9.7 0.00 0.00 0.00 70 1013.2
20260507045257 6 67 6.4 9.7 0.00 0.00 0.00 71 1013.3
20260507044255 6 67 4.8 9.7 0.00 0.00 0.00 71 1013.2
20260507043252 6 60 6.4 12.9 0.00 0.00 0.00 72 1013.1
20260507042350 5 60 6.4 9.7 0.00 0.00 0.00 72 1013.1
20260507041249 5 62 4.8 9.7 0.00 0.00 0.00 73 1013.0
20260507040248 5 70 3.2 6.4 0.00 0.00 0.00 73 1012.8
20260507035245 5 68 3.2 6.4 0.00 0.00 0.00 73 1012.7
20260507034244 5 63 4.8 9.7 0.00 0.00 0.00 72 1012.7
20260507033241 5 65 4.8 8.0 0.00 0.00 0.00 72 1012.7
20260507032259 5 65 4.8 6.4 0.00 0.00 0.00 72 1012.6
20260507031237 5 66 4.8 6.4 0.00 0.00 0.00 72 1012.5
20260507030235 5 65 4.8 8.0 0.00 0.00 0.00 72 1012.5
20260507025233 5 64 4.8 8.0 0.00 0.00 0.00 72 1012.6
20260507024231 5 63 6.4 9.7 0.00 0.00 0.00 72 1012.6
20260507023230 5 64 4.8 6.4 0.00 0.00 0.00 71 1012.7
20260507022227 5 63 6.4 9.7 0.00 0.00 0.00 71 1012.7
20260507021225 5 63 4.8 6.4 0.00 0.00 0.00 71 1012.7
20260507020242 5 62 6.4 9.7 0.00 0.00 0.00 71 1012.6
20260507015221 5 62 6.4 9.7 0.00 0.00 0.00 71 1012.6
20260507014219 5 63 4.8 8.0 0.00 0.00 0.00 71 1012.6
20260507013217 5 62 6.4 9.7 0.00 0.00 0.00 71 1012.6
20260507012215 5 64 4.8 8.0 0.00 0.00 0.00 71 1012.7
20260507011212 5 62 4.8 9.7 0.00 0.00 0.00 71 1012.6
20260507010211 5 59 4.8 9.7 0.00 0.00 0.00 70 1012.6
20260507005209 5 65 4.8 6.4 0.00 0.00 0.00 70 1012.6
20260507004207 5 62 4.8 8.0 0.00 0.00 0.00 70 1012.6
20260507003225 5 65 3.2 6.4 0.00 0.00 0.00 70 1012.6
20260507002203 5 65 3.2 6.4 0.00 0.00 0.00 70 1012.6
20260507001201 5 69 4.8 8.0 0.00 0.00 0.00 70 1012.6
20260507000159 5 61 4.8 8.0 0.00 0.00 0.00 69 1012.6
20260506235157 5 61 4.8 9.7 0.00 0.00 0.00 69 1012.6
20260506234155 5 66 4.8 8.0 0.00 0.00 0.00 68 1012.5
20260506233153 5 62 4.8 9.7 0.00 0.00 0.00 68 1012.5
20260506232151 5 64 4.8 9.7 0.00 0.00 0.00 68 1012.4
20260506231150 5 63 6.4 11.3 0.00 0.00 0.00 68 1012.4
20260506230147 5 59 6.4 11.3 0.00 0.00 0.00 68 1012.5
20260506225145 5 59 8.0 11.3 0.00 0.00 0.00 69 1012.5
20260506224143 5 64 6.4 11.3 0.00 0.00 0.00 69 1012.4
20260506223141 6 58 6.4 12.9 0.00 0.00 0.00 70 1012.3
20260506222159 6 67 6.4 16.1 0.00 0.00 0.00 69 1012.2
20260506221137 6 54 8.0 16.1 0.00 0.00 0.00 69 1012.0
20260506220135 6 56 9.7 16.1 0.00 0.00 0.00 69 1012.1
20260506215133 6 60 9.7 19.3 0.00 0.00 0.00 69 1012.2
20260506214151 6 57 8.0 14.5 0.00 0.00 0.00 68 1012.2
20260506213129 6 53 9.7 19.3 0.00 0.00 0.00 68 1012.1
20260506212127 6 54 11.3 19.3 0.00 0.00 0.00 67 1012.1
20260506211124 6 54 9.7 19.3 0.00 0.00 0.00 67 1012.1
20260506210124 6 55 9.7 19.3 0.00 0.00 0.00 66 1012.0
20260506205123 6 56 9.7 17.7 0.00 0.00 0.00 66 1012.0
20260506204119 6 54 9.7 17.7 0.00 0.00 0.00 65 1012.1
20260506203117 6 55 9.7 17.7 0.00 0.00 0.00 65 1012.2
20260506202115 6 56 9.7 20.9 0.00 0.00 0.00 65 1012.2
20260506201113 6 53 9.7 14.5 0.00 0.00 0.00 64 1012.3
20260506200112 6 52 9.7 19.3 0.00 0.00 0.00 64 1012.3
20260506195149 6 52 9.7 17.7 0.00 0.00 0.00 63 1012.3
20260506194107 6 52 9.7 16.1 0.00 0.00 0.00 62 1012.3
20260506193126 6 55 9.7 17.7 0.00 0.00 0.00 61 1012.2
20260506192104 6 53 9.7 19.3 0.00 0.00 0.00 61 1012.3
20260506191101 7 50 8.0 17.7 0.00 0.00 0.00 60 1012.3
20260506190100 7 52 9.7 19.3 0.00 0.00 0.00 58 1012.3
20260506185058 7 57 6.4 17.7 0.00 0.00 0.00 57 1012.3
20260506184114 7 51 9.7 22.5 0.00 0.00 0.00 56 1012.3
20260506183052 7 50 9.7 17.7 0.00 0.00 0.00 56 1012.3
20260506182052 7 51 9.7 17.7 0.00 0.00 0.00 55 1012.4
20260506181129 7 53 9.7 19.3 0.00 0.00 0.00 55 1012.5
20260506180046 7 54 8.0 16.1 0.00 0.00 0.00 55 1012.5
20260506175045 8 53 9.7 17.7 0.00 0.00 0.00 54 1012.4
20260506174044 8 54 8.0 14.5 0.00 0.00 0.00 55 1012.3
20260506173101 8 49 11.3 19.3 0.00 0.00 0.00 54 1012.4
20260506172039 8 51 9.7 19.3 0.00 0.00 0.00 54 1012.4
20260506171056 8 53 9.7 19.3 0.00 0.00 0.00 54 1012.4
20260506170055 8 52 9.7 17.7 0.00 0.00 0.00 54 1012.4
20260506165033 9 52 6.4 17.7 0.00 0.00 0.00 53 1012.5
20260506164031 9 54 8.0 16.1 0.00 0.00 0.00 54 1012.6
20260506163029 10 52 11.3 17.7 0.00 0.00 0.00 53 1012.7
20260506162028 10 59 12.9 20.9 0.00 0.00 0.00 52 1012.7
20260506161046 10 56 11.3 17.7 0.00 0.00 0.00 52 1012.6
20260506160022 10 59 9.7 16.1 0.00 0.00 0.00 51 1012.6
20260506155022 10 55 11.3 17.7 0.00 0.00 0.00 51 1012.4
20260506154019 11 60 9.7 16.1 0.00 0.00 0.00 50 1012.4
20260506153017 11 33 4.8 11.3 0.00 0.00 0.00 49 1012.5
20260506152015 11 19 3.2 9.7 0.00 0.00 0.00 49 1012.6
20260506151014 12 90 3.2 9.7 0.00 0.00 0.00 51 1012.8
20260506145510 12 330 1.6 8.0 0.00 0.00 0.00 49 1012.8
20260506144507 12 205 3.2 6.4 0.00 0.00 0.00 49 1012.9
20260506143506 12 90 3.2 9.7 0.00 0.00 0.00 47 1013.0
20260506142504 12 109 4.8 8.0 0.00 0.00 0.00 46 1012.9
20260506141501 12 101 6.4 11.3 0.00 0.00 0.00 46 1013.0
20260506135959 11 152 4.8 9.7 0.00 0.00 0.00 49 1013.3
20260506134958 11 129 8.0 16.1 0.00 0.00 0.00 48 1013.4
20260506133955 11 105 9.7 14.5 0.00 0.00 0.00 49 1013.4
20260506132953 11 151 6.4 11.3 0.00 0.00 0.00 51 1013.7
20260506132031 11 148 6.4 14.5 0.00 0.00 0.00 55 1013.7
20260506130948 11 129 9.7 14.5 0.00 0.00 0.00 54 1013.8
20260506125947 11 131 8.0 14.5 0.00 0.00 0.00 53 1013.9
20260506124945 11 124 6.4 14.5 0.00 0.00 0.00 55 1013.8
20260506123944 11 119 9.7 14.5 0.00 0.00 0.00 52 1013.8
20260506123001 11 117 9.7 17.7 0.00 0.00 0.00 52 1013.9
20260506121939 11 114 9.7 19.3 0.00 0.00 0.00 55 1014.0
20260506120936 11 107 6.4 11.3 0.00 0.00 0.00 57 1014.1
20260506115936 11 124 8.0 14.5 0.00 0.00 0.00 60 1014.2
20260506114934 10 115 11.3 19.3 0.00 0.00 0.00 61 1014.0
20260506113931 10 100 11.3 17.7 0.00 0.00 0.00 58 1013.8
20260506112929 10 100 11.3 17.7 0.00 0.00 0.00 58 1013.8
20260506111947 11 120 11.3 16.1 0.00 0.00 0.00 57 1013.7
20260506110925 11 109 11.3 17.7 0.00 0.00 0.00 55 1013.6
20260506105923 11 151 8.0 16.1 0.00 0.00 0.00 61 1013.6
20260506104921 11 124 11.3 17.7 0.00 0.00 0.00 60 1013.6
20260506103940 11 124 11.3 17.7 0.00 0.00 0.00 60 1013.6
20260506102917 11 121 12.9 20.9 0.00 0.00 0.00 63 1013.7
20260506101936 12 152 8.0 14.5 0.00 0.00 0.00 58 1013.6
20260506100933 11 124 9.7 17.7 0.00 0.00 0.00 57 1013.6
20260506095911 12 135 9.7 17.7 0.00 0.00 0.00 56 1013.6
20260506094909 12 143 6.4 14.5 0.00 0.00 0.00 52 1013.7
20260506093907 13 120 6.4 14.5 0.00 0.00 0.00 51 1013.7